Date String (YYYY-MM-DD hh:mm:ss) UTC,Instrument flags,absolute air pressure of the measurement (hPa),sample flow rate (lpm),inlet stack bypass flow (lpm),air temperature of the measurement (°C),ambient temperature measured by the external sensor (°C),aerosol sample conditioner tube jacket temperature (°C),OPC LED temperature (°C),internal box temperature (°C),relative humidity of the measurement (%),span deviation,mass concentration of particles derived from Lorenz-Mie calculation of OPC scattering (μg/m³),mass concentration of particles derived from Lorenz-Mie calculation of OPC scattering (μg/m³),mass concentration of particles derived from Lorenz-Mie calculation of OPC scattering (μg/m³)
DateTimeUTC,F1_M11,P_M11,Q1_M11,Q2_M11,T1_M11,T2_M11,T3_M11,T4_M11,T5_M11,U1_M11,ZSPAN_M11,X0_M11,X2_M11,X1_M11
2024-01-04 17:00:00,SystemResetWarning,0825.1,5.00,000.00,018.8,017.9,000.0,027.2,020.0,19.2,0001.4,0013.98,0009.13,0008.42
2024-01-04 17:01:00,SystemResetWarning,0825.0,5.00,000.00,018.7,017.9,000.0,027.2,020.0,19.2,0001.7,0013.63,0009.10,0008.40
2024-01-04 17:02:00,SystemResetWarning,0825.0,5.00,000.00,018.7,017.9,000.0,027.2,020.0,19.3,0001.7,0013.50,0009.06,0008.40
2024-01-04 17:03:00,SystemResetWarning,0824.9,5.00,000.00,018.7,018.0,000.0,027.2,020.0,19.3,0001.7,0013.66,0009.06,0008.39
2024-01-04 17:04:00,SystemResetWarning,0825.0,5.00,000.00,018.7,018.0,000.0,027.2,020.0,19.3,0001.7,0013.68,0009.08,0008.40
2024-01-04 17:05:00,SystemResetWarning,0825.0,5.00,000.00,018.7,018.0,000.0,027.2,020.0,19.4,0001.6,0013.38,0009.10,0008.40
2024-01-04 17:06:00,SystemResetWarning,0825.0,5.00,000.00,018.7,018.0,000.0,027.2,020.0,19.4,0001.3,0013.41,0009.12,0008.42
2024-01-04 17:07:00,SystemResetWarning,0825.0,4.99,000.00,018.7,018.0,000.0,027.2,020.0,19.5,0001.3,0013.82,0009.13,0008.41
2024-01-04 17:08:00,SystemResetWarning,0825.0,5.00,000.00,018.7,018.0,000.0,027.2,020.0,19.5,0001.4,0013.75,0009.09,0008.39
2024-01-04 17:09:00,SystemResetWarning,0825.0,5.00,000.00,018.7,018.0,000.0,027.1,020.0,19.6,0001.5,0013.72,0009.05,0008.36
2024-01-04 17:10:00,SystemResetWarning,0825.1,5.00,000.00,018.7,018.0,000.0,027.1,020.0,19.6,0001.7,0014.48,0009.00,0008.34
2024-01-04 17:11:00,SystemResetWarning,0825.1,5.01,000.00,018.7,018.0,000.0,027.1,020.0,19.7,0001.6,0014.33,0008.96,0008.32
2024-01-04 17:12:00,SystemResetWarning,0825.0,5.01,000.00,018.7,018.0,000.0,027.1,020.0,19.7,0001.4,0014.43,0008.98,0008.32
2024-01-04 17:13:00,SystemResetWarning,0825.0,4.99,000.00,018.7,018.0,000.0,027.1,020.0,19.7,0001.4,0014.66,0009.02,0008.31
2024-01-04 17:14:00,SystemResetWarning,0825.0,4.99,000.00,018.7,018.0,000.0,027.1,020.0,19.6,0001.3,0014.42,0009.01,0008.29
2024-01-04 17:15:00,SystemResetWarning,0824.9,4.99,000.00,018.7,018.0,000.0,027.1,020.0,19.6,0001.3,0014.37,0008.99,0008.29
2024-01-04 17:16:00,SystemResetWarning,0824.9,5.00,000.00,018.7,018.0,000.0,027.1,020.0,19.5,0001.3,0014.99,0008.99,0008.28
2024-01-04 17:17:00,SystemResetWarning,0824.9,5.00,000.00,018.7,018.0,000.0,027.1,020.0,19.5,0001.2,0014.74,0008.98,0008.26
2024-01-04 17:18:00,SystemResetWarning,0824.9,5.01,000.00,018.7,018.0,000.0,027.1,020.0,19.5,0000.8,0014.92,0008.97,0008.25
2024-01-04 17:19:00,SystemResetWarning,0824.9,5.00,000.00,018.7,018.0,000.0,027.1,020.0,19.6,0000.8,0015.02,0008.98,0008.26
2024-01-04 17:20:00,SystemResetWarning,0824.9,5.01,000.00,018.7,018.0,000.0,027.1,020.0,19.6,0000.7,0015.15,0009.02,0008.26
2024-01-04 17:21:00,SystemResetWarning,0824.9,5.00,000.00,018.7,018.0,000.0,027.2,020.0,19.6,0000.4,0014.19,0009.02,0008.27
2024-01-04 17:22:00,SystemResetWarning,0824.9,5.00,000.00,018.7,018.0,000.0,027.1,020.0,19.5,0000.4,0014.07,0008.99,0008.27
2024-01-04 17:23:00,SystemResetWarning,0824.9,5.00,000.00,018.7,018.0,000.0,027.1,020.0,19.4,0000.3,0013.89,0008.95,0008.27
2024-01-04 17:24:00,SystemResetWarning,0824.9,5.00,000.00,018.7,018.0,000.0,027.1,020.0,19.3,0000.0,0013.67,0008.91,0008.28
2024-01-04 17:25:00,SystemResetWarning,0824.9,5.00,000.00,018.7,018.0,000.0,027.1,020.0,19.3,0000.1,0013.82,0008.92,0008.29
2024-01-04 17:26:00,SystemResetWarning,0824.9,5.00,000.00,018.7,018.1,000.0,027.1,020.0,19.4,0000.3,0014.64,0008.92,0008.29
2024-01-04 17:27:00,SystemResetWarning,0824.9,4.99,000.00,018.7,018.1,000.0,027.1,020.0,19.4,0000.2,0014.67,0008.92,0008.29
2024-01-04 17:28:00,SystemResetWarning,0824.8,5.00,000.00,018.7,018.1,000.0,027.1,020.0,19.4,0000.3,0015.17,0008.94,0008.29
2024-01-04 17:29:00,SystemResetWarning,0824.8,5.00,000.00,018.7,018.1,000.0,027.1,020.0,19.3,0000.8,0014.64,0008.91,0008.30
2024-01-04 17:30:00,SystemResetWarning,0824.8,5.00,000.00,018.7,018.0,000.0,027.1,020.0,19.3,0001.0,0014.82,0008.89,0008.31
2024-01-04 17:31:00,SystemResetWarning,0824.8,5.00,000.00,018.7,018.0,000.0,027.1,020.0,19.4,0001.0,0015.12,0008.86,0008.32
2024-01-04 17:32:00,SystemResetWarning,0824.8,5.00,000.00,018.7,018.1,000.0,027.1,020.0,19.3,0001.0,0015.27,0008.87,0008.33
2024-01-04 17:33:00,SystemResetWarning,0824.7,5.01,000.00,018.7,018.1,000.0,027.1,020.0,19.3,0001.0,0015.34,0008.90,0008.35
2024-01-04 17:34:00,SystemResetWarning,0824.7,5.01,000.00,018.7,018.1,000.0,027.1,020.0,19.3,0001.0,0015.74,0008.92,0008.36
2024-01-04 17:35:00,SystemResetWarning,0824.7,5.00,000.00,018.7,018.1,000.0,027.1,020.0,19.2,0001.0,0016.32,0008.95,0008.35
2024-01-04 17:36:00,SystemResetWarning,0824.7,5.00,000.00,018.7,018.1,000.0,027.1,020.0,19.2,0001.4,0016.64,0008.99,0008.35
2024-01-04 17:37:00,SystemResetWarning,0824.7,4.99,000.00,018.7,018.1,000.0,027.1,020.0,19.2,0001.3,0015.81,0009.01,0008.37
2024-01-04 17:38:00,SystemResetWarning,0824.7,5.00,000.00,018.7,018.1,000.0,027.1,020.0,19.2,0001.3,0015.20,0009.01,0008.38
2024-01-04 17:39:00,SystemResetWarning,0824.7,5.00,000.00,018.7,018.1,000.0,027.1,020.0,19.2,0001.5,0014.56,0008.98,0008.37
2024-01-04 17:40:00,SystemResetWarning,0824.7,5.00,000.00,018.7,018.1,000.0,027.1,020.0,19.2,0001.5,0014.52,0008.97,0008.37
2024-01-04 17:41:00,SystemResetWarning,0824.7,5.00,000.00,018.7,018.1,000.0,027.1,020.0,19.2,0001.4,0014.17,0008.98,0008.37
2024-01-04 17:42:00,SystemResetWarning,0824.7,5.00,000.00,018.7,018.1,000.0,027.1,020.0,19.1,0001.3,0013.90,0008.99,0008.36
2024-01-04 17:43:00,SystemResetWarning,0824.7,5.00,000.00,018.7,018.1,000.0,027.1,020.0,19.1,0001.5,0013.75,0008.97,0008.35
2024-01-04 17:44:00,SystemResetWarning,0824.7,5.00,000.00,018.7,018.1,000.0,027.1,020.0,19.1,0001.3,0013.90,0008.96,0008.35
2024-01-04 17:45:00,SystemResetWarning,0824.7,5.00,000.00,018.7,018.1,000.0,027.1,020.0,19.0,0001.4,0013.56,0008.94,0008.35
2024-01-04 17:46:00,SystemResetWarning,0824.7,5.00,000.00,018.7,018.1,000.0,027.1,020.0,19.0,0001.8,0013.22,0008.93,0008.35
2024-01-04 17:47:00,SystemResetWarning,0824.6,4.99,000.00,018.7,018.1,000.0,027.1,020.0,19.0,0001.8,0013.45,0008.95,0008.35
2024-01-04 17:48:00,SystemResetWarning,0824.6,4.99,000.00,018.7,018.1,000.0,027.1,020.0,19.0,0001.6,0013.48,0008.95,0008.36
2024-01-04 17:49:00,SystemResetWarning,0824.6,5.01,000.00,018.7,018.1,000.0,027.1,020.0,19.0,0001.4,0013.67,0008.96,0008.36
2024-01-04 17:50:00,SystemResetWarning,0824.7,5.01,000.00,018.7,018.1,000.0,027.1,020.0,19.0,0001.0,0013.77,0008.99,0008.38
2024-01-04 17:51:00,SystemResetWarning,0824.7,5.01,000.00,018.7,018.1,000.0,027.1,020.0,19.1,0000.3,0014.23,0009.04,0008.39
2024-01-04 17:52:00,SystemResetWarning,0824.7,5.00,000.00,018.7,018.1,000.0,027.1,020.0,19.1,0000.0,0014.37,0009.12,0008.41
2024-01-04 17:53:00,SystemResetWarning,0824.7,4.98,000.00,018.7,018.1,000.0,027.1,020.0,19.1,0000.1,0014.39,0009.16,0008.43
2024-01-04 17:54:00,SystemResetWarning,0824.7,4.99,000.00,018.8,018.1,000.0,027.1,020.0,19.1,0000.1,0014.49,0009.20,0008.44
2024-01-04 17:55:00,SystemResetWarning,0824.7,5.02,000.00,018.8,018.1,000.0,027.1,020.0,19.1,0000.4,0014.37,0009.23,0008.45
2024-01-04 17:56:00,SystemResetWarning,0824.7,5.01,000.00,018.8,018.1,000.0,027.1,020.0,19.1,0000.3,0014.50,0009.26,0008.46
2024-01-04 17:57:00,SystemResetWarning,0824.7,5.00,000.00,018.8,018.0,000.0,027.2,020.0,19.1,0000.1,0014.66,0009.24,0008.46
2024-01-04 17:58:00,SystemResetWarning,0824.7,4.99,000.00,018.8,018.0,000.0,027.2,020.0,19.1,-000.8,0014.04,0009.18,0008.47
2024-01-04 17:59:00,SystemResetWarning,0824.7,5.01,000.00,018.8,018.0,000.0,027.2,020.0,19.1,-000.8,0013.88,0009.17,0008.47
